TimeMST,TemperatureF,Dew PointF,Humidity,Sea Level PressureIn,VisibilityMPH,Wind Direction,Wind SpeedMPH,Gust SpeedMPH,PrecipitationIn,Events,Conditions,WindDirDegrees,DateUTC
12:55 AM,19.2,11.3,71,30.27,10.0,West,6.9,-,N/A,,Clear,280,2013-01-06 07:55:00
1:55 AM,23.9,12.4,62,30.25,10.0,WSW,6.9,-,N/A,,Clear,250,2013-01-06 08:55:00
2:55 AM,23.4,11.8,61,30.23,10.0,WSW,5.8,-,N/A,,Clear,250,2013-01-06 09:55:00
3:55 AM,24.1,10.6,56,30.21,10.0,WSW,6.9,-,N/A,,Clear,240,2013-01-06 10:55:00
4:55 AM,23.4,9.9,56,30.21,10.0,SSW,6.9,-,N/A,,Clear,200,2013-01-06 11:55:00
5:55 AM,24.8,10.0,54,30.19,10.0,SSW,5.8,-,N/A,,Clear,210,2013-01-06 12:55:00
6:55 AM,19.9,10.6,67,30.18,10.0,SSE,11.5,-,N/A,,Clear,160,2013-01-06 13:55:00
7:55 AM,20.7,10.4,65,30.14,10.0,South,12.7,-,N/A,,Clear,170,2013-01-06 14:55:00
8:55 AM,22.5,11.3,62,30.12,10.0,SSE,5.8,-,N/A,,Clear,160,2013-01-06 15:55:00
9:55 AM,31.8,16.0,52,30.04,10.0,South,17.3,21.9,N/A,,Partly Cloudy,170,2013-01-06 16:55:00
10:55 AM,34.2,16.0,47,30.01,10.0,South,12.7,-,N/A,,Clear,180,2013-01-06 17:55:00
11:55 AM,35.6,18.7,50,29.95,10.0,South,8.1,-,N/A,,Clear,170,2013-01-06 18:55:00
12:55 PM,40.3,21.4,47,29.91,10.0,ESE,4.6,-,N/A,,Clear,110,2013-01-06 19:55:00
1:55 PM,46.9,23.4,40,29.87,10.0,Variable,5.8,-,N/A,,Clear,0,2013-01-06 20:55:00
2:55 PM,43.5,25.3,49,29.88,10.0,NNE,5.8,-,N/A,,Clear,20,2013-01-06 21:55:00
3:55 PM,37.0,21.4,53,29.90,10.0,NNW,8.1,-,N/A,,Clear,330,2013-01-06 22:55:00
4:55 PM,34.3,15.1,45,29.91,10.0,East,4.6,-,N/A,,Clear,100,2013-01-06 23:55:00
5:55 PM,37.0,9.5,32,29.91,10.0,NW,5.8,-,N/A,,Clear,320,2013-01-07 00:55:00
6:55 PM,30.7,11.8,46,29.94,10.0,West,3.5,-,N/A,,Clear,260,2013-01-07 01:55:00
7:55 PM,28.0,12.9,53,29.94,10.0,West,5.8,-,N/A,,Clear,280,2013-01-07 02:55:00
8:55 PM,32.4,10.8,41,29.93,10.0,West,4.6,-,N/A,,Partly Cloudy,280,2013-01-07 03:55:00
9:55 PM,35.2,13.1,40,29.89,10.0,WSW,4.6,-,N/A,,Clear,250,2013-01-07 04:55:00
10:55 PM,35.8,15.3,43,29.91,10.0,North,4.6,-,N/A,,Partly Cloudy,360,2013-01-07 05:55:00
11:55 PM,34.9,15.4,45,29.92,10.0,WNW,5.8,-,N/A,,Scattered Clouds,290,2013-01-07 06:55:00